[Date Prev][Date Next][Thread Prev][Thread Next] - [Date Index][Thread Index][Author Index]

2 Line ISS Keps 7-6



ISS
1 25544U 98067A   04188.45679235  .00004629  00000-0  43227-4 0  1559
2 25544  51.6302 227.4613 0005858 331.6143 170.5345 15.69584715321340

----
Via the sarex mailing list at AMSAT.ORG courtesy of AMSAT-NA.
To unsubscribe, send "unsubscribe sarex" to Majordomo@amsat.org



AMSAT Top AMSAT Home